{"data":{"norad_id":62558,"intl_designator":"2025-006E","name":"STARLINK-11358 [DTC]","alt_names":[],"object_type":"PAYLOAD","status":"ACTIVE","operator":null,"country":"US","launch_date":"2025-01-10","launch_site_code":"AFETR","launch_vehicle":null,"mission":null,"orbit_class":"UNKNOWN","rcs_meters":null,"size_class":null,"mass_kg":null,"dimensions":null,"purposes":["comms"],"wikipedia_slug":null,"has_3d_model":false,"image_url":null,"decayed_at":null,"tle_current":{"epoch":"2026-05-25T01:21:27.230688Z","epoch_age_seconds":66343,"freshness":"FRESH","line1":"1 62558U 25006E   26145.05656517  .00134547  00000+0  10354-2 0  9990","line2":"2 62558  42.9986  39.5147 0001915 274.5740  85.4909 15.70834955 78614","mean_motion":15.70834955,"eccentricity":0.0001915,"inclination_deg":42.9986,"raan_deg":39.5147,"arg_perigee_deg":274.574,"mean_anomaly_deg":85.4909,"bstar":0.0010354,"rev_number":7861,"period_min":91.670992895622,"perigee_km":355.2197963602,"apogee_km":357.79916596248,"semimajor_km":6734.6464811613,"source":"CELESTRAK","updated_at":"2026-05-25T13:38:19.707296Z"}}}